BEIDOU 20 (C18)

Last updated on Jan. 18, 2020, 4:39 a.m. UTC

1 40938U 15053A   20017.21841657 -.00000141  00000-0  00000+0 0  9998
2 40938  52.8476 285.9632 0047706 183.5392 180.4571  1.00262447 15871
UTC
Height (km)
Latitude
Longitude
Inclination
Orbital Period
UTC large
Height (km)
Speed (km/s)
/
Latitude / Longitude
Inclination (degrees)
Orbital Period (minutes)
Azimuth
Elevation
Range (km)
Doppler Factor
iOS Compass Heading
iOS Angle

Next 30 passes for location: Hong Kong

Rise time Rise Azimuth (degrees) Set time Set Azimuth (degrees) Duration Max altitude (degrees)

No matching passes for this satellites